owner,sensor,date,latitude,longitude,vertical_datum,wind_speed,wind_to_direction,wind_speed_of_gust,qcFlag 
TCOON,ioos:station:TCOON:003:1,2013-01-01T00:00:00Z,26.8015,-97.4706,0.0,4.0,172.0,5.9,'11111222,11111222,11111222' 
TCOON,ioos:station:TCOON:003:1,2013-01-01T01:00:00Z,26.8015,-97.4706,0.0,3.1,165.0,3.4,'11111222,11111222,11111222' 
TCOON,ioos:station:TCOON:003:1,2013-01-01T02:00:00Z,26.8015,-97.4706,0.0,2.8,155.0,3.2,'11111222,11111222,11111222' 
TCOON,ioos:station:TCOON:003:1,2013-01-01T03:00:00Z,26.8015,-97.4706,0.0,2.4,151.0,2.5,'11111222,11111222,11111222' 
TCOON,ioos:station:TCOON:003:1,2013-01-01T04:00:00Z,26.8015,-97.4706,0.0,1.8,145.0,2.4,'11111222,11111222,11111222' 
TCOON,ioos:station:TCOON:003:1,2013-01-01T05:00:00Z,26.8015,-97.4706,0.0,3.2,161.0,3.5,'11111222,11111222,11111222' 
TCOON,ioos:station:TCOON:003:1,2013-01-01T06:00:00Z,26.8015,-97.4706,0.0,2.8,163.0,3.1,'11111222,11111222,11111222' 
TCOON,ioos:station:TCOON:003:1,2013-01-01T07:00:00Z,26.8015,-97.4706,0.0,3.9,169.0,4.1,'11111222,11111222,11111222' 
TCOON,ioos:station:TCOON:003:1,2013-01-01T08:00:00Z,26.8015,-97.4706,0.0,3.1,173.0,3.3,'11111222,11111222,11111222' 
TCOON,ioos:station:TCOON:003:1,2013-01-01T09:00:00Z,26.8015,-97.4706,0.0,2.0,155.0,2.5,'11111222,11111222,11111222' 
TCOON,ioos:station:TCOON:003:1,2013-01-01T10:00:00Z,26.8015,-97.4706,0.0,7.1,178.0,7.5,'11111222,11111222,11111222' 
TCOON,ioos:station:TCOON:003:1,2013-01-01T11:00:00Z,26.8015,-97.4706,0.0,6.6,169.0,7.1,'11111222,11111222,11111222' 
TCOON,ioos:station:TCOON:003:1,2013-01-01T12:00:00Z,26.8015,-97.4706,0.0,5.8,185.0,6.4,'11111222,11111222,11111222' 
TCOON,ioos:station:TCOON:003:1,2013-01-01T13:00:00Z,26.8015,-97.4706,0.0,6.1,292.0,7.6,'11111222,11111222,11111222' 
TCOON,ioos:station:TCOON:003:1,2013-01-01T14:00:00Z,26.8015,-97.4706,0.0,5.6,298.0,6.5,'11111222,11111222,11111222' 
TCOON,ioos:station:TCOON:003:1,2013-01-01T15:00:00Z,26.8015,-97.4706,0.0,6.6,313.0,7.5,'11111222,11111222,11111222' 
TCOON,ioos:station:TCOON:003:1,2013-01-01T16:00:00Z,26.8015,-97.4706,0.0,8.4,334.0,10.0,'11111222,11111222,11111222' 
TCOON,ioos:station:TCOON:003:1,2013-01-01T17:00:00Z,26.8015,-97.4706,0.0,11.9,15.0,13.6,'11111222,11111222,11111222' 
TCOON,ioos:station:TCOON:003:1,2013-01-01T18:00:00Z,26.8015,-97.4706,0.0,11.9,2.0,13.7,'11111222,11111222,11111222' 
TCOON,ioos:station:TCOON:003:1,2013-01-01T19:00:00Z,26.8015,-97.4706,0.0,10.9,12.0,12.5,'11111222,11111222,11111222' 
TCOON,ioos:station:TCOON:003:1,2013-01-01T20:00:00Z,26.8015,-97.4706,0.0,11.2,7.0,13.0,'11111222,11111222,11111222' 
TCOON,ioos:station:TCOON:003:1,2013-01-01T21:00:00Z,26.8015,-97.4706,0.0,7.8,14.0,9.7,'11111222,11111222,11111222' 
TCOON,ioos:station:TCOON:003:1,2013-01-01T22:00:00Z,26.8015,-97.4706,0.0,10.2,20.0,12.1,'11111222,11111222,11111222' 
TCOON,ioos:station:TCOON:003:1,2013-01-01T23:00:00Z,26.8015,-97.4706,0.0,9.6,10.0,11.3,'11111222,11111222,11111222' 
TCOON,ioos:station:TCOON:003:1,2013-01-02T00:00:00Z,26.8015,-97.4706,0.0,8.2,359.0,9.9,'11111222,11111222,11111222' 
TCOON,ioos:station:TCOON:003:1,2013-01-02T01:00:00Z,26.8015,-97.4706,0.0,6.7,15.0,8.0,'11111222,11111222,11111222' 
TCOON,ioos:station:TCOON:003:1,2013-01-02T02:00:00Z,26.8015,-97.4706,0.0,6.2,358.0,7.8,'11111222,11111222,11111222' 
TCOON,ioos:station:TCOON:003:1,2013-01-02T03:00:00Z,26.8015,-97.4706,0.0,7.4,6.0,8.6,'11111222,11111222,11111222' 
TCOON,ioos:station:TCOON:003:1,2013-01-02T04:00:00Z,26.8015,-97.4706,0.0,7.8,10.0,9.1,'11111222,11111222,11111222' 
TCOON,ioos:station:TCOON:003:1,2013-01-02T05:00:00Z,26.8015,-97.4706,0.0,7.1,2.0,8.9,'11111222,11111222,11111222' 
TCOON,ioos:station:TCOON:003:1,2013-01-02T06:00:00Z,26.8015,-97.4706,0.0,7.0,6.0,8.7,'11111222,11111222,11111222' 
TCOON,ioos:station:TCOON:003:1,2013-01-02T07:00:00Z,26.8015,-97.4706,0.0,9.1,349.0,10.4,'11111222,11111222,11111222' 
TCOON,ioos:station:TCOON:003:1,2013-01-02T08:00:00Z,26.8015,-97.4706,0.0,7.7,358.0,10.1,'11111222,11111222,11111222' 
TCOON,ioos:station:TCOON:003:1,2013-01-02T09:00:00Z,26.8015,-97.4706,0.0,9.2,360.0,9.9,'11111222,11144222,11111222' 
TCOON,ioos:station:TCOON:003:1,2013-01-02T10:00:00Z,26.8015,-97.4706,0.0,8.3,360.0,10.1,'11111222,11144222,11111222' 
TCOON,ioos:station:TCOON:003:1,2013-01-02T11:00:00Z,26.8015,-97.4706,0.0,7.7,359.0,9.8,'11111222,11111222,11111222' 
TCOON,ioos:station:TCOON:003:1,2013-01-02T12:00:00Z,26.8015,-97.4706,0.0,8.1,1.0,9.5,'11111222,11111222,11111222' 
TCOON,ioos:station:TCOON:003:1,2013-01-02T13:00:00Z,26.8015,-97.4706,0.0,7.4,356.0,8.7,'11111222,11111222,11111222' 
TCOON,ioos:station:TCOON:003:1,2013-01-02T14:00:00Z,26.8015,-97.4706,0.0,8.4,2.0,9.7,'11111222,11111222,11111222' 
TCOON,ioos:station:TCOON:003:1,2013-01-02T15:00:00Z,26.8015,-97.4706,0.0,7.3,353.0,9.3,'11111222,11111222,11111222' 
TCOON,ioos:station:TCOON:003:1,2013-01-02T16:00:00Z,26.8015,-97.4706,0.0,8.6,348.0,9.5,'11111222,11111222,11111222' 
TCOON,ioos:station:TCOON:003:1,2013-01-02T17:00:00Z,26.8015,-97.4706,0.0,8.0,2.0,9.5,'11111222,11111222,11111222' 
TCOON,ioos:station:TCOON:003:1,2013-01-02T18:00:00Z,26.8015,-97.4706,0.0,10.0,354.0,10.7,'11111222,11111222,11111222' 
TCOON,ioos:station:TCOON:003:1,2013-01-02T19:00:00Z,26.8015,-97.4706,0.0,9.1,358.0,10.2,'11111222,11111222,11111222' 
TCOON,ioos:station:TCOON:003:1,2013-01-02T20:00:00Z,26.8015,-97.4706,0.0,8.7,354.0,9.9,'11111222,11111222,11111222' 
TCOON,ioos:station:TCOON:003:1,2013-01-02T21:00:00Z,26.8015,-97.4706,0.0,8.2,353.0,9.5,'11111222,11111222,11111222' 
TCOON,ioos:station:TCOON:003:1,2013-01-02T22:00:00Z,26.8015,-97.4706,0.0,7.1,337.0,8.1,'11111222,11111222,11111222' 
TCOON,ioos:station:TCOON:003:1,2013-01-02T23:00:00Z,26.8015,-97.4706,0.0,7.4,336.0,8.1,'11111222,11111222,11111222' 
TCOON,ioos:station:TCOON:003:1,2013-01-03T00:00:00Z,26.8015,-97.4706,0.0,7.6,346.0,9.2,'11111222,11111222,11111222' 
TCOON,ioos:station:TCOON:003:1,2013-01-03T01:00:00Z,26.8015,-97.4706,0.0,7.5,5.0,8.6,'11111222,11111222,11111222' 
TCOON,ioos:station:TCOON:003:1,2013-01-03T02:00:00Z,26.8015,-97.4706,0.0,8.1,348.0,9.7,'11111222,11111222,11111222' 
TCOON,ioos:station:TCOON:003:1,2013-01-03T03:00:00Z,26.8015,-97.4706,0.0,7.2,350.0,8.1,'11111222,11111222,11111222' 
TCOON,ioos:station:TCOON:003:1,2013-01-03T04:00:00Z,26.8015,-97.4706,0.0,6.9,339.0,7.5,'11111222,11111222,11111222' 
TCOON,ioos:station:TCOON:003:1,2013-01-03T05:00:00Z,26.8015,-97.4706,0.0,6.5,345.0,7.4,'11111222,11111222,11111222' 
TCOON,ioos:station:TCOON:003:1,2013-01-03T06:00:00Z,26.8015,-97.4706,0.0,7.1,355.0,8.3,'11111222,11111222,11111222' 
TCOON,ioos:station:TCOON:003:1,2013-01-03T07:00:00Z,26.8015,-97.4706,0.0,7.2,348.0,8.7,'11111222,11111222,11111222' 
TCOON,ioos:station:TCOON:003:1,2013-01-03T08:00:00Z,26.8015,-97.4706,0.0,7.0,347.0,8.6,'11111222,11111222,11111222' 
TCOON,ioos:station:TCOON:003:1,2013-01-03T09:00:00Z,26.8015,-97.4706,0.0,7.0,353.0,8.1,'11111222,11111222,11111222' 
TCOON,ioos:station:TCOON:003:1,2013-01-03T10:00:00Z,26.8015,-97.4706,0.0,7.8,351.0,8.9,'11111222,11111222,11111222' 
TCOON,ioos:station:TCOON:003:1,2013-01-03T11:00:00Z,26.8015,-97.4706,0.0,8.2,351.0,9.5,'11111222,11111222,11111222' 
TCOON,ioos:station:TCOON:003:1,2013-01-03T12:00:00Z,26.8015,-97.4706,0.0,7.2,343.0,8.7,'11111222,11111222,11111222' 
TCOON,ioos:station:TCOON:003:1,2013-01-03T13:00:00Z,26.8015,-97.4706,0.0,8.4,351.0,9.7,'11111222,11111222,11111222' 
TCOON,ioos:station:TCOON:003:1,2013-01-03T14:00:00Z,26.8015,-97.4706,0.0,9.1,356.0,10.6,'11111222,11111222,11111222' 
TCOON,ioos:station:TCOON:003:1,2013-01-03T15:00:00Z,26.8015,-97.4706,0.0,9.3,2.0,11.0,'11111222,11111222,11111222' 
TCOON,ioos:station:TCOON:003:1,2013-01-03T16:00:00Z,26.8015,-97.4706,0.0,11.1,360.0,11.9,'11111222,11144222,11111222' 
TCOON,ioos:station:TCOON:003:1,2013-01-03T17:00:00Z,26.8015,-97.4706,0.0,10.8,5.0,11.9,'11111222,11111222,11111222' 
TCOON,ioos:station:TCOON:003:1,2013-01-03T18:00:00Z,26.8015,-97.4706,0.0,9.8,349.0,11.7,'11111222,11111222,11111222' 
TCOON,ioos:station:TCOON:003:1,2013-01-03T19:00:00Z,26.8015,-97.4706,0.0,9.2,3.0,11.0,'11111222,11111222,11111222' 
TCOON,ioos:station:TCOON:003:1,2013-01-03T20:00:00Z,26.8015,-97.4706,0.0,9.7,4.0,11.3,'11111222,11111222,11111222' 
TCOON,ioos:station:TCOON:003:1,2013-01-03T21:00:00Z,26.8015,-97.4706,0.0,9.5,360.0,11.1,'11111222,11144222,11111222' 
TCOON,ioos:station:TCOON:003:1,2013-01-03T22:00:00Z,26.8015,-97.4706,0.0,8.9,5.0,11.0,'11111222,11111222,11111222' 
TCOON,ioos:station:TCOON:003:1,2013-01-03T23:00:00Z,26.8015,-97.4706,0.0,8.0,4.0,9.3,'11111222,11111222,11111222' 
TCOON,ioos:station:TCOON:003:1,2013-01-04T00:00:00Z,26.8015,-97.4706,0.0,7.6,359.0,9.0,'11111222,11111222,11111222' 
TCOON,ioos:station:TCOON:003:1,2013-01-04T01:00:00Z,26.8015,-97.4706,0.0,6.5,351.0,7.3,'11111222,11111222,11111222' 
TCOON,ioos:station:TCOON:003:1,2013-01-04T02:00:00Z,26.8015,-97.4706,0.0,7.3,2.0,8.8,'11111222,11111222,11111222' 
TCOON,ioos:station:TCOON:003:1,2013-01-04T03:00:00Z,26.8015,-97.4706,0.0,7.3,4.0,8.2,'11111222,11111222,11111222' 
TCOON,ioos:station:TCOON:003:1,2013-01-04T04:00:00Z,26.8015,-97.4706,0.0,6.5,352.0,7.4,'11111222,11111222,11111222' 
TCOON,ioos:station:TCOON:003:1,2013-01-04T05:00:00Z,26.8015,-97.4706,0.0,7.4,348.0,8.5,'11111222,11111222,11111222' 
TCOON,ioos:station:TCOON:003:1,2013-01-04T06:00:00Z,26.8015,-97.4706,0.0,8.0,332.0,8.9,'11111222,11111222,11111222' 
TCOON,ioos:station:TCOON:003:1,2013-01-04T07:00:00Z,26.8015,-97.4706,0.0,7.6,348.0,9.2,'11111222,11111222,11111222' 
TCOON,ioos:station:TCOON:003:1,2013-01-04T08:00:00Z,26.8015,-97.4706,0.0,7.9,336.0,9.0,'11111222,11111222,11111222' 
TCOON,ioos:station:TCOON:003:1,2013-01-04T09:00:00Z,26.8015,-97.4706,0.0,8.1,347.0,10.1,'11111222,11111222,11111222' 
TCOON,ioos:station:TCOON:003:1,2013-01-04T10:00:00Z,26.8015,-97.4706,0.0,8.1,345.0,9.6,'11111222,11111222,11111222' 
TCOON,ioos:station:TCOON:003:1,2013-01-04T11:00:00Z,26.8015,-97.4706,0.0,8.7,346.0,11.5,'11111222,11111222,11111222' 
TCOON,ioos:station:TCOON:003:1,2013-01-04T12:00:00Z,26.8015,-97.4706,0.0,9.3,353.0,11.1,'11111222,11111222,11111222' 
TCOON,ioos:station:TCOON:003:1,2013-01-04T13:00:00Z,26.8015,-97.4706,0.0,8.2,346.0,9.3,'11111222,11111222,11111222' 
TCOON,ioos:station:TCOON:003:1,2013-01-04T14:00:00Z,26.8015,-97.4706,0.0,8.1,342.0,9.9,'11111222,11111222,11111222' 
TCOON,ioos:station:TCOON:003:1,2013-01-04T15:00:00Z,26.8015,-97.4706,0.0,10.2,354.0,11.3,'11111222,11111222,11111222' 
TCOON,ioos:station:TCOON:003:1,2013-01-04T16:00:00Z,26.8015,-97.4706,0.0,9.9,353.0,10.9,'11111222,11111222,11111222' 
TCOON,ioos:station:TCOON:003:1,2013-01-04T17:00:00Z,26.8015,-97.4706,0.0,10.0,346.0,12.6,'11111222,11111222,11111222' 
TCOON,ioos:station:TCOON:003:1,2013-01-04T18:00:00Z,26.8015,-97.4706,0.0,9.4,360.0,10.8,'11111222,11144222,11111222' 
TCOON,ioos:station:TCOON:003:1,2013-01-04T19:00:00Z,26.8015,-97.4706,0.0,10.6,360.0,12.8,'11111222,11144222,11111222' 
TCOON,ioos:station:TCOON:003:1,2013-01-04T20:00:00Z,26.8015,-97.4706,0.0,11.2,359.0,13.1,'11111222,11111222,11111222' 
TCOON,ioos:station:TCOON:003:1,2013-01-04T21:00:00Z,26.8015,-97.4706,0.0,10.5,4.0,12.2,'11111222,11111222,11111222' 
TCOON,ioos:station:TCOON:003:1,2013-01-04T22:00:00Z,26.8015,-97.4706,0.0,11.7,4.0,13.3,'11111222,11111222,11111222' 
TCOON,ioos:station:TCOON:003:1,2013-01-04T23:00:00Z,26.8015,-97.4706,0.0,10.1,1.0,13.2,'11111222,11111222,11111222' 
TCOON,ioos:station:TCOON:003:1,2013-01-05T00:00:00Z,26.8015,-97.4706,0.0,11.0,354.0,13.4,'11111222,11111222,11111222' 
TCOON,ioos:station:TCOON:003:1,2013-01-05T01:00:00Z,26.8015,-97.4706,0.0,9.5,350.0,10.8,'11111222,11111222,11111222' 
TCOON,ioos:station:TCOON:003:1,2013-01-05T02:00:00Z,26.8015,-97.4706,0.0,9.4,352.0,11.0,'11111222,11111222,11111222' 
TCOON,ioos:station:TCOON:003:1,2013-01-05T03:00:00Z,26.8015,-97.4706,0.0,9.1,351.0,10.6,'11111222,11111222,11111222' 
TCOON,ioos:station:TCOON:003:1,2013-01-05T04:00:00Z,26.8015,-97.4706,0.0,8.2,3.0,10.3,'11111222,11111222,11111222' 
TCOON,ioos:station:TCOON:003:1,2013-01-05T05:00:00Z,26.8015,-97.4706,0.0,7.9,347.0,10.3,'11111222,11111222,11111222' 
TCOON,ioos:station:TCOON:003:1,2013-01-05T06:00:00Z,26.8015,-97.4706,0.0,9.0,354.0,10.6,'11111222,11111222,11111222' 
TCOON,ioos:station:TCOON:003:1,2013-01-05T07:00:00Z,26.8015,-97.4706,0.0,8.8,348.0,10.7,'11111222,11111222,11111222' 
TCOON,ioos:station:TCOON:003:1,2013-01-05T08:00:00Z,26.8015,-97.4706,0.0,8.8,344.0,10.1,'11111222,11111222,11111222' 
TCOON,ioos:station:TCOON:003:1,2013-01-05T09:00:00Z,26.8015,-97.4706,0.0,8.4,340.0,10.9,'11111222,11111222,11111222' 
TCOON,ioos:station:TCOON:003:1,2013-01-05T10:00:00Z,26.8015,-97.4706,0.0,8.8,341.0,10.9,'11111222,11111222,11111222' 
TCOON,ioos:station:TCOON:003:1,2013-01-05T11:00:00Z,26.8015,-97.4706,0.0,8.6,342.0,10.7,'11111222,11111222,11111222' 
TCOON,ioos:station:TCOON:003:1,2013-01-05T12:00:00Z,26.8015,-97.4706,0.0,9.5,346.0,11.1,'11111222,11111222,11111222' 
TCOON,ioos:station:TCOON:003:1,2013-01-05T13:00:00Z,26.8015,-97.4706,0.0,8.8,348.0,10.8,'11111222,11111222,11111222' 
TCOON,ioos:station:TCOON:003:1,2013-01-05T14:00:00Z,26.8015,-97.4706,0.0,7.9,360.0,10.0,'11111222,11144222,11111222' 
TCOON,ioos:station:TCOON:003:1,2013-01-05T15:00:00Z,26.8015,-97.4706,0.0,8.4,356.0,9.9,'11111222,11111222,11111222' 
TCOON,ioos:station:TCOON:003:1,2013-01-05T16:00:00Z,26.8015,-97.4706,0.0,7.5,344.0,9.1,'11111222,11111222,11111222' 
TCOON,ioos:station:TCOON:003:1,2013-01-05T17:00:00Z,26.8015,-97.4706,0.0,8.0,345.0,9.3,'11111222,11111222,11111222' 
TCOON,ioos:station:TCOON:003:1,2013-01-05T18:00:00Z,26.8015,-97.4706,0.0,7.1,340.0,8.6,'11111222,11111222,11111222' 
TCOON,ioos:station:TCOON:003:1,2013-01-05T19:00:00Z,26.8015,-97.4706,0.0,7.8,351.0,9.0,'11111222,11111222,11111222' 
TCOON,ioos:station:TCOON:003:1,2013-01-05T20:00:00Z,26.8015,-97.4706,0.0,7.8,2.0,8.6,'11111222,11111222,11111222' 
TCOON,ioos:station:TCOON:003:1,2013-01-05T21:00:00Z,26.8015,-97.4706,0.0,8.0,360.0,9.5,'11111222,11144222,11111222' 
TCOON,ioos:station:TCOON:003:1,2013-01-05T22:00:00Z,26.8015,-97.4706,0.0,8.2,1.0,9.1,'11111222,11111222,11111222' 
TCOON,ioos:station:TCOON:003:1,2013-01-05T23:00:00Z,26.8015,-97.4706,0.0,6.4,6.0,7.2,'11111222,11111222,11111222' 
TCOON,ioos:station:TCOON:003:1,2013-01-06T00:00:00Z,26.8015,-97.4706,0.0,4.7,8.0,5.4,'11111222,11111222,11111222' 
TCOON,ioos:station:TCOON:003:1,2013-01-06T01:00:00Z,26.8015,-97.4706,0.0,5.5,350.0,6.1,'11111222,11111222,11111222' 
TCOON,ioos:station:TCOON:003:1,2013-01-06T02:00:00Z,26.8015,-97.4706,0.0,6.0,346.0,6.7,'11111222,11111222,11111222' 
TCOON,ioos:station:TCOON:003:1,2013-01-06T03:00:00Z,26.8015,-97.4706,0.0,6.2,341.0,6.8,'11111222,11111222,11111222' 
TCOON,ioos:station:TCOON:003:1,2013-01-06T04:00:00Z,26.8015,-97.4706,0.0,5.1,342.0,5.7,'11111222,11111222,11111222' 
TCOON,ioos:station:TCOON:003:1,2013-01-06T05:00:00Z,26.8015,-97.4706,0.0,5.4,338.0,6.3,'11111222,11111222,11111222' 
TCOON,ioos:station:TCOON:003:1,2013-01-06T06:00:00Z,26.8015,-97.4706,0.0,6.1,332.0,6.7,'11111222,11111222,11111222' 
TCOON,ioos:station:TCOON:003:1,2013-01-06T07:00:00Z,26.8015,-97.4706,0.0,5.0,337.0,6.4,'11111222,11111222,11111222' 
TCOON,ioos:station:TCOON:003:1,2013-01-06T08:00:00Z,26.8015,-97.4706,0.0,6.2,336.0,7.1,'11111222,11111222,11111222' 
TCOON,ioos:station:TCOON:003:1,2013-01-06T09:00:00Z,26.8015,-97.4706,0.0,5.8,337.0,6.4,'11111222,11111222,11111222' 
TCOON,ioos:station:TCOON:003:1,2013-01-06T10:00:00Z,26.8015,-97.4706,0.0,6.5,343.0,7.2,'11111222,11111222,11111222' 
TCOON,ioos:station:TCOON:003:1,2013-01-06T11:00:00Z,26.8015,-97.4706,0.0,6.6,342.0,8.6,'11111222,11111222,11111222' 
TCOON,ioos:station:TCOON:003:1,2013-01-06T12:00:00Z,26.8015,-97.4706,0.0,5.3,326.0,5.7,'11111222,11111222,11111222' 
TCOON,ioos:station:TCOON:003:1,2013-01-06T13:00:00Z,26.8015,-97.4706,0.0,4.6,334.0,5.6,'11111222,11111222,11111222' 
TCOON,ioos:station:TCOON:003:1,2013-01-06T14:00:00Z,26.8015,-97.4706,0.0,5.5,342.0,6.8,'11111222,11111222,11111222' 
TCOON,ioos:station:TCOON:003:1,2013-01-06T15:00:00Z,26.8015,-97.4706,0.0,7.6,354.0,8.9,'11111222,11111222,11111222' 
TCOON,ioos:station:TCOON:003:1,2013-01-06T16:00:00Z,26.8015,-97.4706,0.0,8.7,4.0,9.8,'11111222,11111222,11111222' 
TCOON,ioos:station:TCOON:003:1,2013-01-06T17:00:00Z,26.8015,-97.4706,0.0,6.7,341.0,8.1,'11111222,11111222,11111222' 
TCOON,ioos:station:TCOON:003:1,2013-01-06T18:00:00Z,26.8015,-97.4706,0.0,9.3,11.0,10.6,'11111222,11111222,11111222' 
TCOON,ioos:station:TCOON:003:1,2013-01-06T19:00:00Z,26.8015,-97.4706,0.0,8.6,22.0,11.0,'11111222,11111222,11111222' 
TCOON,ioos:station:TCOON:003:1,2013-01-06T20:00:00Z,26.8015,-97.4706,0.0,8.1,32.0,9.5,'11111222,11111222,11111222' 
TCOON,ioos:station:TCOON:003:1,2013-01-06T21:00:00Z,26.8015,-97.4706,0.0,9.3,45.0,10.3,'11111222,11111222,11111222' 
TCOON,ioos:station:TCOON:003:1,2013-01-06T22:00:00Z,26.8015,-97.4706,0.0,7.4,53.0,8.8,'11111222,11111222,11111222' 
TCOON,ioos:station:TCOON:003:1,2013-01-06T23:00:00Z,26.8015,-97.4706,0.0,4.6,34.0,5.7,'11111222,11111222,11111222' 
TCOON,ioos:station:TCOON:003:1,2013-01-07T00:00:00Z,26.8015,-97.4706,0.0,2.6,26.0,3.2,'11111222,11111222,11111222' 
TCOON,ioos:station:TCOON:003:1,2013-01-07T01:00:00Z,26.8015,-97.4706,0.0,1.8,6.0,2.4,'11111222,11111222,11111222' 
TCOON,ioos:station:TCOON:003:1,2013-01-07T02:00:00Z,26.8015,-97.4706,0.0,1.8,351.0,2.1,'11111222,11111222,11111222' 
TCOON,ioos:station:TCOON:003:1,2013-01-07T03:00:00Z,26.8015,-97.4706,0.0,2.8,1.0,3.1,'11111222,11111222,11111222' 
TCOON,ioos:station:TCOON:003:1,2013-01-07T04:00:00Z,26.8015,-97.4706,0.0,2.5,338.0,2.8,'11111222,11111222,11111222' 
TCOON,ioos:station:TCOON:003:1,2013-01-07T05:00:00Z,26.8015,-97.4706,0.0,3.2,336.0,3.6,'11111222,11111222,11111222' 
TCOON,ioos:station:TCOON:003:1,2013-01-07T06:00:00Z,26.8015,-97.4706,0.0,3.6,338.0,4.1,'11111222,11111222,11111222' 
TCOON,ioos:station:TCOON:003:1,2013-01-07T07:00:00Z,26.8015,-97.4706,0.0,4.1,3.0,4.6,'11111222,11111222,11111222' 
TCOON,ioos:station:TCOON:003:1,2013-01-07T08:00:00Z,26.8015,-97.4706,0.0,4.4,2.0,5.1,'11111222,11111222,11111222' 
TCOON,ioos:station:TCOON:003:1,2013-01-07T09:00:00Z,26.8015,-97.4706,0.0,4.3,343.0,4.8,'11111222,11111222,11111222' 
TCOON,ioos:station:TCOON:003:1,2013-01-07T10:00:00Z,26.8015,-97.4706,0.0,3.9,329.0,4.5,'11111222,11111222,11111222' 
TCOON,ioos:station:TCOON:003:1,2013-01-07T11:00:00Z,26.8015,-97.4706,0.0,4.1,335.0,4.4,'11111222,11111222,11111222' 
TCOON,ioos:station:TCOON:003:1,2013-01-07T12:00:00Z,26.8015,-97.4706,0.0,4.3,339.0,4.9,'11111222,11111222,11111222' 
TCOON,ioos:station:TCOON:003:1,2013-01-07T13:00:00Z,26.8015,-97.4706,0.0,3.3,1.0,3.9,'11111222,11111222,11111222' 
TCOON,ioos:station:TCOON:003:1,2013-01-07T14:00:00Z,26.8015,-97.4706,0.0,3.7,330.0,4.2,'11111222,11111222,11111222' 
TCOON,ioos:station:TCOON:003:1,2013-01-07T15:00:00Z,26.8015,-97.4706,0.0,4.2,341.0,4.5,'11111222,11111222,11111222' 
TCOON,ioos:station:TCOON:003:1,2013-01-07T16:00:00Z,26.8015,-97.4706,0.0,6.0,20.0,7.1,'11111222,11111222,11111222' 
TCOON,ioos:station:TCOON:003:1,2013-01-07T17:00:00Z,26.8015,-97.4706,0.0,3.8,26.0,4.9,'11111222,11111222,11111222' 
TCOON,ioos:station:TCOON:003:1,2013-01-07T18:00:00Z,26.8015,-97.4706,0.0,6.5,27.0,7.3,'11111222,11111222,11111222' 
TCOON,ioos:station:TCOON:003:1,2013-01-07T19:00:00Z,26.8015,-97.4706,0.0,6.1,38.0,7.3,'11111222,11111222,11111222' 
TCOON,ioos:station:TCOON:003:1,2013-01-07T20:00:00Z,26.8015,-97.4706,0.0,5.8,42.0,7.0,'11111222,11111222,11111222' 
TCOON,ioos:station:TCOON:003:1,2013-01-07T21:00:00Z,26.8015,-97.4706,0.0,4.5,40.0,5.4,'11111222,11111222,11111222' 
TCOON,ioos:station:TCOON:003:1,2013-01-07T22:00:00Z,26.8015,-97.4706,0.0,6.1,28.0,7.0,'11111222,11111222,11111222' 
TCOON,ioos:station:TCOON:003:1,2013-01-07T23:00:00Z,26.8015,-97.4706,0.0,5.8,30.0,6.4,'11111222,11111222,11111222' 
TCOON,ioos:station:TCOON:003:1,2013-01-08T00:00:00Z,26.8015,-97.4706,0.0,5.4,23.0,7.3,'11111222,11111222,11111222' 
TCOON,ioos:station:TCOON:003:1,2013-01-08T01:00:00Z,26.8015,-97.4706,0.0,6.0,11.0,6.4,'11111222,11111222,11111222' 
TCOON,ioos:station:TCOON:003:1,2013-01-08T02:00:00Z,26.8015,-97.4706,0.0,4.2,26.0,4.9,'11111222,11111222,11111222' 
TCOON,ioos:station:TCOON:003:1,2013-01-08T03:00:00Z,26.8015,-97.4706,0.0,2.3,2.0,2.5,'11111222,11111222,11111222' 
TCOON,ioos:station:TCOON:003:1,2013-01-08T04:00:00Z,26.8015,-97.4706,0.0,2.5,357.0,4.1,'11111222,11111222,11111222' 
TCOON,ioos:station:TCOON:003:1,2013-01-08T05:00:00Z,26.8015,-97.4706,0.0,0.8,360.0,1.2,'11111222,11144222,11111222' 
TCOON,ioos:station:TCOON:003:1,2013-01-08T06:00:00Z,26.8015,-97.4706,0.0,0.8,360.0,0.9,'11111222,11144222,11111222' 
TCOON,ioos:station:TCOON:003:1,2013-01-08T07:00:00Z,26.8015,-97.4706,0.0,2.4,321.0,2.5,'11111222,11111222,11111222' 
TCOON,ioos:station:TCOON:003:1,2013-01-08T08:00:00Z,26.8015,-97.4706,0.0,3.4,294.0,3.9,'11111222,11111222,11111222' 
TCOON,ioos:station:TCOON:003:1,2013-01-08T09:00:00Z,26.8015,-97.4706,0.0,2.6,18.0,3.0,'11111222,11111222,11111222' 
TCOON,ioos:station:TCOON:003:1,2013-01-08T10:00:00Z,26.8015,-97.4706,0.0,1.3,328.0,2.2,'11111222,11111222,11111222' 
TCOON,ioos:station:TCOON:003:1,2013-01-08T11:00:00Z,26.8015,-97.4706,0.0,1.8,148.0,2.1,'11111222,11111222,11111222' 
TCOON,ioos:station:TCOON:003:1,2013-01-08T12:00:00Z,26.8015,-97.4706,0.0,4.0,110.0,4.8,'11111222,11111222,11111222' 
TCOON,ioos:station:TCOON:003:1,2013-01-08T13:00:00Z,26.8015,-97.4706,0.0,4.9,127.0,6.9,'11111222,11111222,11111222' 
TCOON,ioos:station:TCOON:003:1,2013-01-08T14:00:00Z,26.8015,-97.4706,0.0,8.3,179.0,9.8,'11111222,11111222,11111222' 
TCOON,ioos:station:TCOON:003:1,2013-01-08T15:00:00Z,26.8015,-97.4706,0.0,10.6,113.0,13.6,'11111222,11111222,11111222' 
TCOON,ioos:station:TCOON:003:1,2013-01-08T16:00:00Z,26.8015,-97.4706,0.0,6.3,190.0,7.4,'11111222,11111222,11111222' 
TCOON,ioos:station:TCOON:003:1,2013-01-08T17:00:00Z,26.8015,-97.4706,0.0,6.2,187.0,7.2,'11111222,11111222,11111222' 
TCOON,ioos:station:TCOON:003:1,2013-01-08T18:00:00Z,26.8015,-97.4706,0.0,1.7,128.0,2.6,'11111222,11111222,11111222' 
TCOON,ioos:station:TCOON:003:1,2013-01-08T19:00:00Z,26.8015,-97.4706,0.0,2.0,226.0,4.8,'11111222,11111222,11111222' 
TCOON,ioos:station:TCOON:003:1,2013-01-08T20:00:00Z,26.8015,-97.4706,0.0,6.3,103.0,8.0,'11111222,11111222,11111222' 
TCOON,ioos:station:TCOON:003:1,2013-01-08T21:00:00Z,26.8015,-97.4706,0.0,4.2,90.0,5.8,'11111222,11111222,11111222' 
TCOON,ioos:station:TCOON:003:1,2013-01-08T22:00:00Z,26.8015,-97.4706,0.0,4.6,98.0,5.6,'11111222,11111222,11111222' 
TCOON,ioos:station:TCOON:003:1,2013-01-08T23:00:00Z,26.8015,-97.4706,0.0,5.5,107.0,6.4,'11111222,11111222,11111222' 
TCOON,ioos:station:TCOON:003:1,2013-01-09T00:00:00Z,26.8015,-97.4706,0.0,5.3,94.0,6.5,'11111222,11111222,11111222' 
TCOON,ioos:station:TCOON:003:1,2013-01-09T01:00:00Z,26.8015,-97.4706,0.0,6.5,111.0,7.5,'11111222,11111222,11111222' 
TCOON,ioos:station:TCOON:003:1,2013-01-09T02:00:00Z,26.8015,-97.4706,0.0,5.9,146.0,6.3,'11111222,11111222,11111222' 
TCOON,ioos:station:TCOON:003:1,2013-01-09T03:00:00Z,26.8015,-97.4706,0.0,3.6,121.0,4.3,'11111222,11111222,11111222' 
TCOON,ioos:station:TCOON:003:1,2013-01-09T04:00:00Z,26.8015,-97.4706,0.0,8.0,141.0,9.3,'11111222,11111222,11111222' 
TCOON,ioos:station:TCOON:003:1,2013-01-09T05:00:00Z,26.8015,-97.4706,0.0,11.8,138.0,15.9,'11111222,11111222,11111222' 
TCOON,ioos:station:TCOON:003:1,2013-01-09T06:00:00Z,26.8015,-97.4706,0.0,5.8,139.0,7.7,'11111222,11111222,11111222' 
TCOON,ioos:station:TCOON:003:1,2013-01-09T07:00:00Z,26.8015,-97.4706,0.0,5.6,108.0,6.5,'11111222,11111222,11111222' 
TCOON,ioos:station:TCOON:003:1,2013-01-09T08:00:00Z,26.8015,-97.4706,0.0,6.5,118.0,10.6,'11111222,11111222,11111222' 
TCOON,ioos:station:TCOON:003:1,2013-01-09T09:00:00Z,26.8015,-97.4706,0.0,2.5,244.0,2.8,'11111222,11111222,11111222' 
TCOON,ioos:station:TCOON:003:1,2013-01-09T10:00:00Z,26.8015,-97.4706,0.0,2.8,151.0,2.8,'11111222,11111222,11111222' 
TCOON,ioos:station:TCOON:003:1,2013-01-09T11:00:00Z,26.8015,-97.4706,0.0,7.0,291.0,7.5,'11111222,11111222,11111222' 